Location: Bowden
(51.9167°N, 114.0333°W)
Time: 00:47:06
(UTC+00:00)

Envisat - Pass Details

Date: 06 December 2021
Orbit: 764 x 766 km, 98.2° (Epoch: 28 January)

Event Time Altitude Azimuth Distance (km) Brightness Sun altitude
Rises 10:57:47 0° 31° (NNE) 3,246 6.8 -40.4°
Reaches altitude 10° 11:02:06 10° 66° (ENE) 2,312 6.1 -39.7°
Maximum altitude 11:03:33 11° 83° (E) 2,231 6.1 -39.5°
Drops below altitude 10° 11:05:00 10° 99° (E) 2,306 6.1 -39.3°
Sets 11:09:16 0° 134° (SE) 3,224 6.6 -38.6°
